Find Kuiper-00031

NORAD ID: 63744 Int'l Des: 2025-088 Owner: KUIP Country: US Constellation: amazon-leo operational
LEOCIRCULAR

Live-Position

3D-Globus wird geladen...

Über Kuiper-00031

Beschreibung wird geladen...

Nächste Überflüge

Passes for default location (London). Set your location on the main map for personalized predictions.

Höhenverlauf

Loading altitude history...

Zweizeiliger Elementsatz

1 63744U 25088W 26127.56519455 -.00012042 00000-0 -14013-2 0 9997
2 63744 51.8982 193.6872 0001789 341.4572 18.6327 14.84190534 56294
Epoch: 7. Mai 2026 • Age: 8 hours

Aktueller Status

Höhe 633.7 km
Geschwindigkeit 7.54 km/s
Subsatellitenpunkt -52.02°S, 84.79°W
Startdatum 28. Apr. 2025
Alter 1 years
Typ internet

Technische Details

Klassifizierung Payload
Masse 490.00 kg
Trockenmasse 490.00 kg
Gesamtmasse 490.00 kg
Länge 1.80 m
Durchmesser 0.70 m
Spannweite 5.00 m
Form Box + 2 pan
Hersteller KUIP
Bus-Typ Kuiper
Phasenstatus In Orbit
Besitzer/Staat KUIP/US

Most Searched